2 20442 098.2374 084.5601 0011943 358.2949 001.8214 14.32057157004385
AO-27
1 22825U 93061C 09105.84020445 .00000038 00000-0 31413-4 0 02237
2 22825 098.4323 061.2457 0009364 086.7531 273.4743 14.29262963811001
IO-26
1 22826U 93061D 09106.75129463 .00000007 00000-0 19239-4 0 9458
2 22826 098.4248 062.9027 0009963 081.6020 278.6291 14.29514489811234
GO-32
1 25397U 98043D 09105.78114028 -.00000182 00000-0 -62455-4 0 8691
2 25397 098.3306 131.4515 0002212 082.4939 277.6485 14.23156458559253
NO-44
1 26931U 01043C 09105.73781128 -.00000023 00000-0 23244-4 0 1459
2 26931 067.0525 225.2285 0005241 267.4322 092.6169 14.29553169393656
SO-50
1 27607U 02058C 09106.68010540 .00000096 00000-0 36827-4 0 8621
2 27607 064.5584 211.8939 0073951 219.0903 140.4841 14.71428374339624
CO-55
1 27844U 03031E 09105.66102611 .00000024 00000-0 31656-4 0 5571
2 27844 098.7149 115.7080 0009571 329.8103 030.2512 14.20631573300384
CO-57
1 27848U 03031J 09105.55941978 .00000019 00000-0 29324-4 0 05045
2 27848 098.7169 114.6700 0009557 333.4686 026.6005 14.20434598300337
AO-51
1 28375U 04025K 09105.66391970 .00000003 00000-0 13761-4 0 3643
2 28375 098.0551 118.9086 0084159 315.8041 043.6444 14.40638450251959
CO-56
1 28941U 06005C 09106.70321107 .00051938 34609-5 21636-3 0 9974
2 28941 098.1382 269.9530 0101140 003.9264 356.2758 15.78259332177536
CP3
1 31128U 07012M 09105.16835848 -.00000046 00000-0 00000-0 0 06070
2 31128 097.9926 161.1500 0103711 120.3435 240.8117 14.52033178105759
CP4
1 31132U 07012Q 09105.71265469 -.00000079 00000-0 -72885-5 0 05938
2 31132 098.0002 165.3613 0086844 107.8714 253.1961 14.55197270105941
CO-65
1 32785U 08021C 09106.73006716 -.00000038 00000-0 19320-5 0 3415
2 32785 097.9512 171.1897 0013840 229.9173 130.0825 14.81467809 52344
SOHLA-1
1 33496U 09002E 09106.82937867 .00000047 00000-0 16138-4 0 2562
2 33496 098.0321 217.1146 0007847 114.2048 245.9973 14.69429387 12261
NOAA-10
1 16969U 86073A 09106.47101086 -.00000033 00000-0 48105-5 0 5747
2 16969 098.6957 133.4403 0012780 020.8970 339.2731 14.27383964174703
NOAA-11
1 19531U 88089A 09106.33067625 -.00000224 00000-0 -93386-4 0 5887
2 19531 098.7811 197.2403 0010861 287.4148 072.5840 14.14891671 60779
NOAA-12
1 21263U 91032A 09106.55364312 .00000029 00000-0 31390-4 0 783
2 21263 098.7744 114.5847 0012164 329.9867 030.0615 14.25574159931611
MET-3/5
1 21655U 91056A 09105.93052592 .00000051 00000-0 10000-3 0 06436
2 21655 082.5474 250.4702 0013549 341.6684 018.3941 13.17018740849431
MET-2/21
1 22782U 93055A 09106.71226702 .00000119 00000-0 94022-4 0 4320
2 22782 082.5483 230.7626 0023095 155.8873 204.3389 13.83636002789101
OKEAN-4
1 23317U 94066A 09106.75454499 .00000125 00000-0 12437-4 0 8824
2 23317 082.5417 031.8123 0021119 203.5692 156.4582 14.82688405783267
NOAA-14
1 23455U 94089A 09106.45695103 -.00000045 00000-0 -18128-6 0 5834
2 23455 098.9101 184.3460 0009402 011.8607 348.2777 14.13761452737204
NOAA-15
1 25338U 98030A 09106.53394450 -.00000143 00000-0 -42839-4 0 8922
2 25338 098.5827 097.1037 0009755 234.7314 125.2950 14.24752917567991
RESURS
1 25394U 98043A 09106.96730262 -.00000019 00000-0 93606-5 0 1901
2 25394 098.3488 142.4169 0002359 046.1572 313.9802 14.24181627559681
FENGYUN1
1 25730U 99025A 09106.95336126 .00000256 00000-0 17542-3 0 7334
2 25730 098.7537 078.9565 0022984 034.3220 325.9429 14.07965856511706
OKEAN-0
1 25860U 99039A 09105.49657556 .00000030 00000-0 11942-4 0 06523
2 25860 097.7820 089.1852 0001693 054.4397 305.6967 14.73567408523911
NOAA-16
1 26536U 00055A 09106.31210695 -.00000188 00000-0 -76273-4 0 3672
2 26536 099.1771 108.4839 0011453 094.8233 265.4240 14.12514563441569
NOAA-17
1 27453U 02032A 09106.45137272 -.00000065 00000-0 -10014-4 0 3756
2 27453 098.4884 167.6318 0010814 306.8209 053.1980 14.24055123353967
NOAA-18
1 28654U 05018A 09106.43657971 -.00000127 00000-0 -45892-4 0 8653
2 28654 098.9040 050.1682 0014267 173.7548 186.3796 14.11248699201248
NOAA-19
1 33591U 09005A 09106.40335472 .00000426 00000-0 26086-3 0 706
2 33591 098.7427 053.7872 0015020 060.5277 299.7389 14.10951382 9726
HUBBLE
1 20580U 90037B 09105.46330828 .00000441 00000-0 21266-4 0 03694
2 20580 028.4690 151.5765 0003544 000.6279 359.4353 15.00475449840425
PO-34
1 25520U 98064B 09106.95500854 .00000442 00000-0 11942-4 0 2278
2 25520 028.4598 304.8934 0004906 355.6800 004.3754 15.17323279579340
ISS
1 25544U 98067A 09106.49981230 .00010049 00000-0 79015-4 0 6843
2 25544 051.6407 263.1420 0008692 245.9646 235.8437 15.72185824596245
CO-58
1 28895U 05043F 09106.71630196 .00000165 00000-0 43976-4 0 2788
2 28895 098.0665 359.0309 0017924 176.6637 183.4712 14.59758955184766
FALCON
1 30776U 07006E 09105.46748978 .00000379 00000-0 30527-4 0 5473
2 30776 035.4324 119.9321 0000695 061.0045 299.0740 15.03213903115654
MAST
1 31126U 07012K 09105.66530548 .00000139 00000-0 41664-4 0 5719
2 31126 097.9936 163.3159 0095600 113.6162 247.5134 14.53489655105952
CAPE1
1 31130U 07012P 09105.64226542 .00000117 00000-0 37447-4 0 05796
2 31130 097.9967 161.6176 0104002 118.8214 242.3458 14.52049720105612
COMPASS
1 32787U 08021E 09104.34795463 .00000516 00000-0 72427-4 0 03333
2 32787 097.9481 168.6963 0014840 237.2859 122.6926 14.81578888051999
AAUSAT2
1 32788U 08021F 09106.88728749 .00000394 00000-0 56702-4 0 3330
2 32788 097.9489 171.2664 0014366 229.2033 130.7916 14.81701313 52377
DO-64
1 32789U 08021G 09105.75990070 .00000613 00000-0 84605-4 0 03487
2 32789 097.9516 170.2702 0014727 232.2165 127.7713 14.81666098052205
CO-66
1 32791U 08021J 09106.68006150 .00000298 00000-0 44872-4 0 3245
2 32791 097.9474 171.0402 0014975 229.9292 130.0620 14.81414546 52300
RS-30
1 32953U 08025A 09106.61513672 .00000010 00000-0 00000 0 0 2818
2 32953 082.4976 294.9087 0018533 315.3842 044.5744 12.43000373 40741
/EX
1
0
SB KEPS @ AMSAT $ORB09106.O
Orbital Elements 09106.OSCAR
HR AMSAT ORBITAL ELEMENTS FOR OSCAR SATELLITES
FROM WA5QGD FORT WORTH,TX April 16, 2009
Send Subscribe/unsubscribe to KEPS at
http://www.amsat.org/mailman/listinfo/keps
BID: ORB09106.O
TO ALL RADIO AMATEURS BT
Satellite: AO-07
Catalog number: 07530
Epoch time: 09106.63785497
Element set: 453
Inclination: 101.4322 deg
RA of node: 133.5638 deg
Eccentricity: 0.0012120
Arg of perigee: 029.9979 deg
Mean anomaly: 330.1784 deg
Mean motion: 12.53575647 rev/day
Decay rate: -2.7e-07 rev/day^2
Epoch rev: 57500
Checksum: 301
Satellite: AO-10
Catalog number: 14129
Epoch time: 09106.05380253
Element set: 644
Inclination: 025.9422 deg
RA of node: 161.6537 deg
Eccentricity: 0.5990006
Arg of perigee: 214.6431 deg
Mean anomaly: 085.4045 deg
Mean motion: 02.05869145 rev/day
Decay rate: -2.15e-06 rev/day^2
Epoch rev: 19434
Checksum: 283
Satellite: UO-11
Catalog number: 14781
Epoch time: 09106.67876109
Element set: 938
Inclination: 098.1121 deg
RA of node: 150.5781 deg
Eccentricity: 0.0009012
Arg of perigee: 168.4763 deg
Mean anomaly: 191.6701 deg
Mean motion: 14.79704392 rev/day
Decay rate: -5.2e-07 rev/day^2
Epoch rev: 34873
Checksum: 314
Satellite: RS-15
Catalog number: 23439
Epoch time: 09105.89567860
Element set: 0199
Inclination: 064.8141 deg
RA of node: 005.5463 deg
Eccentricity: 0.0146995
Arg of perigee: 063.5561 deg
Mean anomaly: 298.0359 deg
Mean motion: 11.27553217 rev/day
Decay rate: -3.9e-07 rev/day^2
Epoch rev: 58909
Checksum: 342
Satellite: FO-29
Catalog number: 24278
Epoch time: 09106.77084656
Element set: 16
Inclination: 098.5624 deg
RA of node: 349.0395 deg
Eccentricity: 0.0351147
Arg of perigee: 149.4174 deg
Mean anomaly: 212.7960 deg
Mean motion: 13.52943084 rev/day
Decay rate: 1.9e-07 rev/day^2
Epoch rev: 62544
Checksum: 326
Satellite: SO-33
Catalog number: 25509
Epoch time: 09106.82636327
Element set: 432
Inclination: 031.4318 deg
RA of node: 039.4627 deg
Eccentricity: 0.0354471
Arg of perigee: 162.0611 deg
Mean anomaly: 199.2887 deg
Mean motion: 14.28251517 rev/day
Decay rate: 4.18e-06 rev/day^2
Epoch rev: 54705
Checksum: 305
Satellite: AO-40
Catalog number: 26609
Epoch time: 09105.66069202
Element set: 216
Inclination: 009.1977 deg
RA of node: 023.4368 deg
Eccentricity: 0.7962000
Arg of perigee: 194.9139 deg
Mean anomaly: 106.0662 deg
Mean motion: 01.25584647 rev/day
Decay rate: -3.56e-06 rev/day^2
Epoch rev: 3884
Checksum: 312
Satellite: RS-22
Catalog number: 27939
Epoch time: 09105.83696871
Element set: 0767
Inclination: 097.9529 deg
RA of node: 342.9469 deg
Eccentricity: 0.0013222
Arg of perigee: 334.0857 deg
Mean anomaly: 025.9684 deg
Mean motion: 14.63307866 rev/day
Decay rate: 6.3e-07 rev/day^2
Epoch rev: 29645
Checksum: 359
Satellite: VO-52
Catalog number: 28650
Epoch time: 09105.84807636
Element set: 202
Inclination: 097.7465 deg
RA of node: 169.4751 deg
Eccentricity: 0.0026153
Arg of perigee: 231.3891 deg
Mean anomaly: 128.4936 deg
Mean motion: 14.81570093 rev/day
Decay rate: -3.23e-06 rev/day^2
Epoch rev: 21341
Checksum: 305
Satellite: PO-63
Catalog number: 29712
Epoch time: 09106.78550690
Element set: 407
Inclination: 097.8342 deg
RA of node: 164.6467 deg
Eccentricity: 0.0015328
Arg of perigee: 112.5192 deg
Mean anomaly: 247.7642 deg
Mean motion: 14.80506949 rev/day
Decay rate: 5.50e-06 rev/day^2
Epoch rev: 12238
Checksum: 318
/EX
SB KEPS @ AMSAT $ORB09106.D
Orbital Elements 09106.MICROS
HR AMSAT ORBITAL ELEMENTS FOR THE MICROSATS
FROM WA5QGD FORT WORTH,TX April 16, 2009
Send Subscribe/unsubscribe to KEPS at
http://www.amsat.org/mailman/listinfo/keps
BID: ORB09106.D
TO ALL RADIO AMATEURS BT
Satellite: AO-16
Catalog number: 20439
Epoch time: 09106.42896332
Element set: 582
Inclination: 098.2739 deg
RA of node: 077.6601 deg
Eccentricity: 0.0011097
Arg of perigee: 000.0506 deg
Mean anomaly: 000.0694 deg
Mean motion: 14.31821005 rev/day
Decay rate: -6.0e-08 rev/day^2
Epoch rev: 431
Checksum: 258
Satellite: LO-19
Catalog number: 20442
Epoch time: 09105.79736543
Element set: 0503
Inclination: 098.2374 deg
RA of node: 084.5601 deg
Eccentricity: 0.0011943
Arg of perigee: 358.2949 deg
Mean anomaly: 001.8214 deg
Mean motion: 14.32057157 rev/day
Decay rate: -5.0e-08 rev/day^2
Epoch rev: 00438
Checksum: 288
Satellite: AO-27
